CW7220 Ibiza-ciudad ES current weather conditions

sailwx.info

Wind from 085 at 8 knots gusting 13

Air temperature 25.0° C
Dewpoint 21.7° C

Last reported at 2019-Sep-20 13:05 UTC.
Time now 2019-Sep-20 13:53 UTC

Location: N 38°54' E 001°25'.
View on Google Maps.

See reports from other nearby stations

  
Tides and Currents Weather Stations Pressure Air Temp Water Temp Dewpoint Dewpoint Depression Visibility Wind Speed Wind Dir Waves Ship Positions
date/time (UTC)wind fromknots sea level pressurealtimeterstation pressurevisibilityair tempwater tempwave heightnotes
2019-Sep-20 13:05 085 8 gusting 13 25.0
2019-Sep-20 13:00 069 11 gusting 13 25.0
2019-Sep-20 12:55 087 6 gusting 12 25.0
2019-Sep-20 12:50 075 10 gusting 13 25.0
2019-Sep-20 12:45 071 7 gusting 13 25.0
2019-Sep-20 12:40 063 7 gusting 13 25.0
2019-Sep-20 12:35 091 7 gusting 12 25.6
2019-Sep-20 12:30 080 8 gusting 13 25.6
2019-Sep-20 12:25 075 9 gusting 13 25.6
2019-Sep-20 12:20 086 8 gusting 13 25.6
2019-Sep-20 12:15 077 10 gusting 13 25.6
2019-Sep-20 12:10 067 8 gusting 14 25.6
2019-Sep-20 12:05 090 8 gusting 13 25.6
2019-Sep-20 12:00 082 11 gusting 17 25.6
2019-Sep-20 11:55 068 8 gusting 15 25.6
2019-Sep-20 11:50 057 7 gusting 13 25.6
2019-Sep-20 11:45 068 9 gusting 13 25.0
2019-Sep-20 11:40 089 7 gusting 14 25.0
2019-Sep-20 11:35 072 11 gusting 14 25.0
2019-Sep-20 11:30 077 11 gusting 14 25.0
2019-Sep-20 11:25 073 8 gusting 13 25.0
2019-Sep-20 11:20 051 7 gusting 12 25.0
2019-Sep-20 11:15 077 8 gusting 14 25.0
2019-Sep-20 11:10 074 10 gusting 15 25.0
2019-Sep-20 11:05 070 10 gusting 15 25.0
2019-Sep-20 11:00 078 10 gusting 15 25.0
2019-Sep-20 10:55 072 10 gusting 13 25.0
2019-Sep-20 10:50 069 11 gusting 15 25.0
2019-Sep-20 10:45 077 10 gusting 13 25.0
2019-Sep-20 10:40 088 6 gusting 13 25.0
2019-Sep-20 10:35 072 8 gusting 14 25.0
2019-Sep-20 10:30 066 8 gusting 15 25.0
2019-Sep-20 10:25 066 7 gusting 15 25.0
2019-Sep-20 10:20 080 8 gusting 12 25.0
2019-Sep-20 10:15 089 8 gusting 13 25.0
2019-Sep-20 10:10 087 10 gusting 14 25.0
2019-Sep-20 10:05 078 11 gusting 17 25.6
2019-Sep-20 10:00 095 8 gusting 13 25.6
2019-Sep-20 09:55 069 7 gusting 11 25.6
2019-Sep-20 09:50 064 6 gusting 13 25.0
2019-Sep-20 09:45 075 6 gusting 14 25.0
2019-Sep-20 09:40 064 7 gusting 12 25.6
2019-Sep-20 09:35 075 9 gusting 14 25.6
2019-Sep-20 09:30 081 11 gusting 19 25.0
2019-Sep-20 09:25 075 10 gusting 15 25.6
2019-Sep-20 09:20 064 9 gusting 13 25.0
2019-Sep-20 09:15 058 8 gusting 11 25.0
2019-Sep-20 09:10 079 7 gusting 12 25.0
2019-Sep-20 09:05 089 7 gusting 11 25.0
2019-Sep-20 09:00 034 6 gusting 12 25.0
2019-Sep-20 08:55 066 7 gusting 12 25.0
2019-Sep-20 08:50 079 7 gusting 12 24.4
2019-Sep-20 08:45 072 7 gusting 12 24.4
2019-Sep-20 08:40 078 8 gusting 13 24.4
2019-Sep-20 08:35 054 6 gusting 10 24.4
2019-Sep-20 08:30 087 7 gusting 11 24.4
2019-Sep-20 08:25 080 7 gusting 10 24.4
2019-Sep-20 08:20 058 4 gusting 8 24.4
2019-Sep-20 08:15 087 4 gusting 7 23.9
2019-Sep-20 08:10 055 5 gusting 7 23.9
2019-Sep-20 08:05 066 2 gusting 5 24.4
2019-Sep-20 08:00 076 4 gusting 7 24.4
2019-Sep-20 07:55 047 2 gusting 4 23.9
2019-Sep-20 07:50 048 4 gusting 7 23.9
2019-Sep-20 07:45 072 5 gusting 8 23.9
2019-Sep-20 07:40 049 6 gusting 10 23.9
2019-Sep-20 07:35 017 4 gusting 7 23.9
2019-Sep-20 07:30 026 2 gusting 6 23.3
2019-Sep-20 07:25 020 2 gusting 4 23.3
2019-Sep-20 07:20 020 2 gusting 2 23.3
2019-Sep-20 07:15 021 1 gusting 4 23.3
2019-Sep-20 07:10 020 2 gusting 4 23.3
2019-Sep-20 07:05 020 2 gusting 4 23.3
2019-Sep-20 07:00 021 2 gusting 4 23.3
2019-Sep-20 06:55 021 2 gusting 4 22.8
2019-Sep-20 06:50 021 2 gusting 2 22.8
2019-Sep-20 06:45 020 2 gusting 4 22.8
2019-Sep-20 06:40 020 3 gusting 4 22.8
2019-Sep-20 06:35 019 3 gusting 6 22.8
2019-Sep-20 06:30 017 2 gusting 6 22.8
2019-Sep-20 06:25 012 1 gusting 4 22.8
2019-Sep-20 06:20 011 2 gusting 4 22.8
2019-Sep-20 06:15 011 1 gusting 2 22.8
2019-Sep-20 06:10 010 2 gusting 4 22.8
2019-Sep-20 06:05 010 2 gusting 4 22.8
2019-Sep-20 06:00 011 2 gusting 4 22.2
2019-Sep-20 05:55 011 1 gusting 2 22.2
2019-Sep-20 05:50 011 1 gusting 2 22.2
2019-Sep-20 05:45 011 1 gusting 2 22.2
2019-Sep-20 05:40 011 2 gusting 4 22.2
2019-Sep-20 05:35 011 1 gusting 2 22.2
2019-Sep-20 05:30 010 2 gusting 4 22.2
2019-Sep-20 05:25 013 2 gusting 4 22.2
2019-Sep-20 05:20 013 4 gusting 6 22.2
2019-Sep-20 05:15 017 4 gusting 6 22.2
2019-Sep-20 05:10 018 2 gusting 6 22.8
2019-Sep-20 05:05 015 3 gusting 6 22.8
2019-Sep-20 05:00 006 4 gusting 7 22.8
2019-Sep-20 04:55 014 4 gusting 6 22.8
2019-Sep-20 04:50 009 4 gusting 6 22.8
2019-Sep-20 04:45 005 4 gusting 6 22.8
2019-Sep-20 04:40 012 5 gusting 6 22.8
2019-Sep-20 04:35 010 2 gusting 6 22.8
2019-Sep-20 04:30 013 4 gusting 6 22.8
2019-Sep-20 04:25 011 4 gusting 6 22.8
2019-Sep-20 04:20 010 3 gusting 6 22.8
2019-Sep-20 04:15 006 4 gusting 6 22.8
2019-Sep-20 04:10 013 4 gusting 6 22.2
2019-Sep-20 04:05 010 4 gusting 6 22.2
2019-Sep-20 04:00 011 5 gusting 6 22.2
2019-Sep-20 03:55 007 4 gusting 6 22.2
2019-Sep-20 03:50 004 3 gusting 6 22.2
2019-Sep-20 03:45 019 3 gusting 6 22.2
2019-Sep-20 03:40 012 3 gusting 6 22.2
2019-Sep-20 03:35 009 1 gusting 4 22.2
2019-Sep-20 03:30 009 3 gusting 5 22.2
2019-Sep-20 03:25 015 2 gusting 4 22.2
2019-Sep-20 03:20 015 2 gusting 2 22.2
2019-Sep-20 03:15 014 2 gusting 4 22.2
2019-Sep-20 03:10 015 2 gusting 4 22.2
2019-Sep-20 03:05 014 3 gusting 6 22.2
2019-Sep-20 03:00 014 2 gusting 6 22.2
2019-Sep-20 02:55 011 3 gusting 6 22.2
2019-Sep-20 02:50 012 4 gusting 6 22.2
2019-Sep-20 02:45 007 3 gusting 6 22.2
2019-Sep-20 02:40 011 4 gusting 6 22.2
2019-Sep-20 02:35 007 4 gusting 6 22.2
2019-Sep-20 02:30 22.2
2019-Sep-20 02:25 006 4 gusting 7 22.2
2019-Sep-20 02:20 002 4 gusting 7 22.2
2019-Sep-20 02:15 350 4 gusting 6 22.2
2019-Sep-20 02:10 003 2 gusting 5 22.2
2019-Sep-20 02:05 22.2
2019-Sep-20 02:00 356 5 gusting 6 22.2
2019-Sep-20 01:55 020 4 gusting 6 22.2
2019-Sep-20 01:50 014 3 gusting 6 22.2
2019-Sep-20 01:45 355 3 gusting 5 22.2
2019-Sep-20 01:40 350 3 gusting 4 22.2
2019-Sep-20 01:35 005 4 gusting 5 22.2
2019-Sep-20 01:30 005 4 gusting 5 22.2
2019-Sep-20 01:25 22.2
2019-Sep-20 01:20 22.2
2019-Sep-20 01:15 355 3 gusting 6 22.2
2019-Sep-20 01:10 008 5 gusting 6 22.2
2019-Sep-20 01:05 019 3 gusting 6 22.2
2019-Sep-20 01:00 019 2 gusting 6 22.2
2019-Sep-20 00:55 013 3 gusting 4 22.2
2019-Sep-20 00:50 355 1 gusting 2 22.2
2019-Sep-20 00:45 355 2 gusting 2 22.2
2019-Sep-20 00:40 355 1 gusting 2 22.2
2019-Sep-20 00:35 355 1 gusting 2 22.2
2019-Sep-20 00:30 355 1 gusting 2 22.2
2019-Sep-20 00:25 355 0 gusting 2 22.2
2019-Sep-20 00:20 355 1 gusting 2 22.2
2019-Sep-20 00:15 355 1 gusting 2 22.2
2019-Sep-20 00:10 355 0 gusting 2 22.2
2019-Sep-20 00:05 355 1 gusting 2 22.2
2019-Sep-20 00:00 355 0 gusting 2 22.2
2019-Sep-19 23:55 355 1 gusting 2 22.2
2019-Sep-19 23:50 355 1 gusting 2 22.2
2019-Sep-19 23:45 355 0 gusting 2 22.2
2019-Sep-19 23:40 355 0 gusting 4 22.2
2019-Sep-19 23:35 355 3 gusting 4 22.2
2019-Sep-19 23:30 352 1 gusting 2 22.2
2019-Sep-19 23:25 355 0 gusting 2 22.2
2019-Sep-19 23:20 355 0 gusting 2 22.2
2019-Sep-19 23:15 355 1 gusting 2 22.2
2019-Sep-19 23:10 355 1 gusting 2 22.2
2019-Sep-19 23:05 355 2 gusting 2 22.2
2019-Sep-19 23:00 354 2 gusting 2 22.2
2019-Sep-19 22:55 351 3 gusting 4 22.2
2019-Sep-19 22:50 351 2 gusting 2 22.8
2019-Sep-19 22:45 350 1 gusting 2 22.8
2019-Sep-19 22:40 350 2 gusting 4 22.8
2019-Sep-19 22:35 350 2 gusting 4 22.8
2019-Sep-19 22:30 349 2 gusting 4 22.8
2019-Sep-19 22:25 349 3 gusting 4 22.8
2019-Sep-19 22:20 348 1 gusting 2 22.8
2019-Sep-19 22:15 348 1 gusting 2 22.8
2019-Sep-19 22:10 348 1 gusting 2 22.8
2019-Sep-19 22:05 348 1 gusting 2 22.8
2019-Sep-19 22:00 347 2 gusting 4 22.8
2019-Sep-19 21:55 348 2 gusting 4 22.8
2019-Sep-19 21:50 016 2 gusting 5 22.8
2019-Sep-19 21:45 003 2 gusting 4 22.8
2019-Sep-19 21:40 22.8
2019-Sep-19 21:35 22.8
2019-Sep-19 21:30 22.8
2019-Sep-19 21:25 355 0 gusting 2 23.3
2019-Sep-19 21:20 355 0 gusting 1 23.3
2019-Sep-19 21:15 355 23.3
2019-Sep-19 21:10 355 1 gusting 2 23.3
2019-Sep-19 21:05 345 1 gusting 2 23.3
2019-Sep-19 21:00 344 1 gusting 2 23.3
2019-Sep-19 20:55 343 1 gusting 2 23.3
2019-Sep-19 20:50 342 2 gusting 2 23.3
2019-Sep-19 20:45 342 2 gusting 4 23.3
2019-Sep-19 20:40 006 1 gusting 2 23.3
2019-Sep-19 20:35 036 1 gusting 2 23.3
2019-Sep-19 20:30 036 1 gusting 2 23.9
2019-Sep-19 20:25 038 1 gusting 2 23.9
2019-Sep-19 20:20 044 1 gusting 2 23.9
2019-Sep-19 20:15 062 1 gusting 2 23.9
2019-Sep-19 20:10 071 0 gusting 2 23.9
2019-Sep-19 20:05 071 1 gusting 2 23.9
2019-Sep-19 20:00 074 0 gusting 2 23.9
2019-Sep-19 19:55 074 1 gusting 2 23.9
2019-Sep-19 19:50 067 1 gusting 4 23.9
2019-Sep-19 19:45 068 1 gusting 6 23.9
2019-Sep-19 19:40 074 2 gusting 4 24.4
2019-Sep-19 19:35 101 1 gusting 2 24.4
2019-Sep-19 19:30 096 0 gusting 2 23.9
2019-Sep-19 19:25 096 1 gusting 6 23.9
2019-Sep-19 19:20 090 2 gusting 4 24.4
2019-Sep-19 19:15 100 2 gusting 5 24.4
2019-Sep-19 19:10 075 1 gusting 5 24.4
2019-Sep-19 19:05 079 1 gusting 2 24.4
2019-Sep-19 19:00 079 1 gusting 2 24.4
2019-Sep-19 18:55 090 1 gusting 2 24.4
2019-Sep-19 18:50 072 1 gusting 2 24.4
2019-Sep-19 18:45 088 1 gusting 2 24.4
2019-Sep-19 18:40 074 0 gusting 2 24.4
2019-Sep-19 18:35 068 0 gusting 2 24.4
2019-Sep-19 18:30 099 1 gusting 6 24.4
2019-Sep-19 18:25 067 24.4
2019-Sep-19 18:20 102 0 gusting 2 24.4
2019-Sep-19 18:15 103 1 gusting 5 24.4
2019-Sep-19 18:10 091 2 gusting 6 24.4
2019-Sep-19 18:05 110 3 gusting 6 24.4
2019-Sep-19 18:00 094 2 gusting 6 24.4
2019-Sep-19 17:55 097 2 gusting 6 24.4
2019-Sep-19 17:50 092 1 gusting 2 24.4
2019-Sep-19 17:45 116 2 gusting 6 24.4
2019-Sep-19 17:40 080 2 gusting 6 24.4
2019-Sep-19 17:35 096 2 gusting 5 24.4
2019-Sep-19 17:30 107 2 gusting 6 24.4
2019-Sep-19 17:25 094 1 gusting 5 24.4
2019-Sep-19 17:20 074 2 gusting 4 24.4
2019-Sep-19 17:15 117 4 gusting 7 24.4
2019-Sep-19 17:10 121 4 gusting 6 25.0
2019-Sep-19 17:05 118 3 gusting 6 25.0
2019-Sep-19 17:00 110 3 gusting 6 25.0
2019-Sep-19 16:55 121 2 gusting 5 25.0
2019-Sep-19 16:50 125 2 gusting 6 25.0
2019-Sep-19 16:45 130 2 gusting 6 25.0
2019-Sep-19 16:40 116 1 gusting 6 25.0
2019-Sep-19 16:35 123 3 gusting 7 25.0
2019-Sep-19 16:30 111 4 gusting 6 25.0
2019-Sep-19 16:25 110 2 gusting 6 25.0
2019-Sep-19 16:20 104 4 gusting 7 25.0
2019-Sep-19 16:15 125 2 gusting 6 25.0
2019-Sep-19 16:10 115 4 gusting 6 25.6
2019-Sep-19 16:05 115 2 gusting 6 25.6
2019-Sep-19 16:00 111 2 gusting 6 25.6
2019-Sep-19 15:55 123 4 gusting 6 25.6
2019-Sep-19 15:50 109 2 gusting 6 25.6
2019-Sep-19 15:45 104 2 gusting 6 25.6
2019-Sep-19 15:40 102 4 gusting 7 25.6
2019-Sep-19 15:35 142 2 gusting 6 25.6
2019-Sep-19 15:30 099 4 gusting 6 25.6
2019-Sep-19 15:25 104 4 gusting 8 25.6
2019-Sep-19 15:20 106 4 gusting 7 25.6
2019-Sep-19 15:15 115 3 gusting 6 25.6
2019-Sep-19 15:10 104 4 gusting 6 25.6
2019-Sep-19 15:05 107 5 gusting 7 25.6
2019-Sep-19 15:00 127 4 gusting 7 25.6
2019-Sep-19 14:55 109 4 gusting 8 25.6
2019-Sep-19 14:50 107 5 gusting 7 25.6
2019-Sep-19 14:45 099 4 gusting 7 25.6
2019-Sep-19 14:40 120 6 gusting 7 26.1
2019-Sep-19 14:35 109 2 gusting 6 26.1
2019-Sep-19 14:30 101 3 gusting 6 26.1
2019-Sep-19 14:25 125 5 gusting 10 26.1
2019-Sep-19 14:20 142 4 gusting 10 26.1
2019-Sep-19 14:15 091 2 gusting 7 26.1
2019-Sep-19 14:10 131 3 gusting 8 26.1
2019-Sep-19 14:05 118 2 gusting 6 26.1
2019-Sep-19 14:00 107 2 gusting 6 26.1
2019-Sep-19 13:55 084 4 gusting 7 26.1
2019-Sep-19 13:50 127 4 gusting 7 26.1
2019-Sep-19 13:45 120 2 gusting 6 26.1
2019-Sep-19 13:40 146 3 gusting 10 26.1
2019-Sep-19 13:35 096 3 gusting 6 25.6
2019-Sep-19 13:30 102 3 gusting 6 25.6
2019-Sep-19 13:25 145 4 gusting 8 26.1
2019-Sep-19 13:20 077 4 gusting 6 26.1
2019-Sep-19 13:15 140 2 gusting 7 26.1
2019-Sep-19 13:10 159 2 gusting 6 26.1
2019-Sep-19 13:05 119 3 gusting 7 25.6
2019-Sep-19 13:00 120 4 gusting 8 25.6
2019-Sep-19 12:55 134 2 gusting 8 26.1
2019-Sep-19 12:50 144 3 gusting 6 26.1
2019-Sep-19 12:45 146 2 gusting 5 25.6
2019-Sep-19 12:40 097 5 gusting 7 25.6
2019-Sep-19 12:35 094 5 gusting 7 25.6
2019-Sep-19 12:30 074 3 gusting 8 25.6
2019-Sep-19 12:25 103 5 gusting 8 25.6
2019-Sep-19 12:20 135 2 gusting 7 25.6
2019-Sep-19 12:15 125 5 gusting 8 25.6
2019-Sep-19 12:10 108 5 gusting 7 26.1
2019-Sep-19 12:05 121 3 gusting 7 26.1
2019-Sep-19 12:00 084 2 gusting 6 25.6
2019-Sep-19 11:55 073 4 gusting 7 25.6
2019-Sep-19 11:50 101 3 gusting 6 25.6
2019-Sep-19 11:45 129 4 gusting 6 25.6
2019-Sep-19 11:40 087 5 gusting 7 25.6
2019-Sep-19 11:35 089 4 gusting 8 26.1
2019-Sep-19 11:30 137 2 gusting 6 26.1
2019-Sep-19 11:25 105 2 gusting 6 26.1
2019-Sep-19 11:20 102 2 gusting 7 26.1
2019-Sep-19 11:15 096 3 gusting 6 25.6
2019-Sep-19 11:10 108 4 gusting 7 25.6
2019-Sep-19 11:05 089 2 gusting 7 25.6
2019-Sep-19 11:00 110 3 gusting 7 25.6
2019-Sep-19 10:55 097 3 gusting 8 25.6
2019-Sep-19 10:50 114 4 gusting 7 26.1
2019-Sep-19 10:45 143 2 gusting 7 26.1
2019-Sep-19 10:40 145 4 gusting 10 26.1
2019-Sep-19 10:35 101 2 gusting 6 26.1
2019-Sep-19 10:30 149 2 gusting 7 26.1
2019-Sep-19 10:25 126 2 gusting 6 26.1
2019-Sep-19 10:20 118 2 gusting 6 25.6
2019-Sep-19 10:15 089 4 gusting 7 26.1
2019-Sep-19 10:10 105 2 gusting 6 25.6
2019-Sep-19 10:05 083 4 gusting 8 25.6
2019-Sep-19 10:00 100 4 gusting 6 25.6
2019-Sep-19 09:55 143 4 gusting 7 26.1
2019-Sep-19 09:50 144 2 gusting 6 26.1
2019-Sep-19 09:45 120 5 gusting 6 26.1
2019-Sep-19 09:40 113 2 gusting 6 26.1
2019-Sep-19 09:35 141 3 gusting 6 26.1
2019-Sep-19 09:30 115 2 gusting 5 26.1
2019-Sep-19 09:25 131 1 gusting 6 26.1
2019-Sep-19 09:20 111 2 gusting 5 25.6
2019-Sep-19 09:15 125 4 gusting 6 25.6
2019-Sep-19 09:10 117 2 gusting 6 25.6
2019-Sep-19 09:05 099 2 gusting 6 25.6
2019-Sep-19 09:00 142 3 gusting 7 25.6
2019-Sep-19 08:55 123 2 gusting 6 25.6
2019-Sep-19 08:50 128 4 gusting 6 25.6
2019-Sep-19 08:45 103 1 gusting 2 25.6
2019-Sep-19 08:40 053 1 gusting 5 25.6
2019-Sep-19 08:35 047 2 gusting 4 25.0
2019-Sep-19 08:30 083 1 gusting 4 25.0
2019-Sep-19 08:25 070 1 gusting 4 24.4
2019-Sep-19 08:20 073 2 gusting 4 24.4
2019-Sep-19 08:15 055 2 gusting 4 24.4
2019-Sep-19 08:10 064 2 gusting 2 24.4
2019-Sep-19 08:05 083 1 gusting 4 23.9
2019-Sep-19 08:00 065 1 gusting 4 23.9
2019-Sep-19 07:55 034 2 gusting 4 23.9
2019-Sep-19 07:50 046 1 gusting 4 23.3
2019-Sep-19 07:45 052 2 gusting 2 23.3
2019-Sep-19 07:40 041 1 gusting 4 23.3
2019-Sep-19 07:35 059 2 gusting 4 23.3
2019-Sep-19 07:30 044 2 gusting 4 23.3
2019-Sep-19 07:25 009 3 gusting 5 22.8
2019-Sep-19 07:20 002 4 gusting 6 22.8
2019-Sep-19 07:15 024 4 gusting 7 22.8
2019-Sep-19 07:10 016 4 gusting 6 22.2
2019-Sep-19 07:05 019 1 gusting 2 22.2
2019-Sep-19 07:00 020 1 gusting 2 21.7
2019-Sep-19 06:55 019 1 gusting 2 21.7
2019-Sep-19 06:50 019 0 gusting 1 21.7
2019-Sep-19 06:45 019 0 gusting 2 21.7
2019-Sep-19 06:40 019 1 gusting 2 21.7
2019-Sep-19 06:35 019 0 gusting 2 21.7
2019-Sep-19 06:30 019 2 gusting 4 21.7
2019-Sep-19 06:25 037 2 gusting 4 21.7
2019-Sep-19 06:20 034 2 gusting 4 21.7
2019-Sep-19 06:15 029 2 gusting 4 21.7
2019-Sep-19 06:10 028 1 gusting 2 21.7
2019-Sep-19 06:05 027 2 gusting 2 21.7
2019-Sep-19 06:00 027 1 gusting 2 21.7
2019-Sep-19 05:55 027 1 gusting 2 21.7
2019-Sep-19 05:50 027 0 gusting 1 21.7
2019-Sep-19 05:45 027 0 gusting 2 21.7
2019-Sep-19 05:40 027 1 gusting 2 21.7
2019-Sep-19 05:35 027 21.7
2019-Sep-19 05:30 027 0 gusting 1 21.1
2019-Sep-19 05:25 027 0 gusting 1 21.7
2019-Sep-19 05:20 027 0 gusting 1 21.7
2019-Sep-19 05:15 027 21.7
2019-Sep-19 05:10 027 0 gusting 1 21.7
2019-Sep-19 05:05 027 21.7
2019-Sep-19 05:00 027 21.7
2019-Sep-19 04:55 027 21.7
2019-Sep-19 04:50 027 21.7
2019-Sep-19 04:45 027 1 gusting 2 21.7
2019-Sep-19 04:40 027 1 gusting 2 21.1
2019-Sep-19 04:35 027 1 gusting 2 21.1
2019-Sep-19 04:30 027 1 gusting 2 21.1
2019-Sep-19 04:25 027 1 gusting 2 21.1
2019-Sep-19 04:20 027 2 gusting 2 21.1
2019-Sep-19 04:15 027 1 gusting 2 20.6
2019-Sep-19 04:10 027 1 gusting 2 20.6
2019-Sep-19 04:05 027 1 gusting 2 20.6
2019-Sep-19 04:00 027 0 gusting 1 20.6
2019-Sep-19 03:55 027 0 gusting 1 20.6
2019-Sep-19 03:50 027 20.6
2019-Sep-19 03:45 027 0 gusting 2 20.6
2019-Sep-19 03:40 027 0 gusting 1 20.6
2019-Sep-19 03:35 027 0 gusting 1 20.6
2019-Sep-19 03:30 027 0 gusting 1 20.6
2019-Sep-19 03:25 027 0 gusting 1 20.6
2019-Sep-19 03:20 027 0 gusting 1 21.1
2019-Sep-19 03:15 027 1 gusting 2 21.1
2019-Sep-19 03:10 027 0 gusting 1 21.1
2019-Sep-19 03:05 027 1 gusting 2 21.1
2019-Sep-19 03:00 027 20.6
2019-Sep-19 02:55 027 20.6
2019-Sep-19 02:50 027 0 gusting 1 20.6
2019-Sep-19 02:45 027 0 gusting 1 20.6
2019-Sep-19 02:40 027 21.1
2019-Sep-19 02:35 027 21.1
2019-Sep-19 02:30 027 0 gusting 1 21.1
2019-Sep-19 02:25 027 21.1
2019-Sep-19 02:20 027 21.1
2019-Sep-19 02:15 027 21.1
2019-Sep-19 02:10 027 21.1
2019-Sep-19 02:05 027 21.1
2019-Sep-19 02:00 027 0 gusting 1 21.1
2019-Sep-19 01:55 027 0 gusting 1 21.1
2019-Sep-19 01:50 027 1 gusting 2 21.1
2019-Sep-19 01:45 027 0 gusting 1 21.1
2019-Sep-19 01:40 027 21.7
2019-Sep-19 01:35 027 21.7
2019-Sep-19 01:30 027 0 gusting 1 21.7
2019-Sep-19 01:25 027 0 gusting 2 21.7
2019-Sep-19 01:20 027 0 gusting 2 21.7
2019-Sep-19 01:15 027 0 gusting 1 21.7
2019-Sep-19 01:10 027 21.7
2019-Sep-19 01:05 027 21.7
2019-Sep-19 01:00 027 0 gusting 1 21.7
2019-Sep-19 00:55 027 21.7
2019-Sep-19 00:50 027 21.7
2019-Sep-19 00:45 027 0 gusting 1 22.2
2019-Sep-19 00:40 027 0 gusting 1 22.2
2019-Sep-19 00:35 027 0 gusting 2 22.2
2019-Sep-19 00:30 027 0 gusting 1 22.2
2019-Sep-19 00:25 027 22.2
2019-Sep-19 00:20 027 22.2
2019-Sep-19 00:15 027 22.2
2019-Sep-19 00:10 027 22.2
2019-Sep-19 00:05 027 0 gusting 1 22.2
2019-Sep-19 00:00 027 22.2
2019-Sep-18 23:55 027 0 gusting 1 22.2
2019-Sep-18 23:50 027 1 gusting 2 22.2
2019-Sep-18 23:45 027 22.2
2019-Sep-18 23:40 027 0 gusting 1 22.2
2019-Sep-18 23:35 027 1 gusting 2 22.2
2019-Sep-18 23:30 030 22.2
2019-Sep-18 23:25 031 0 gusting 2 22.2
2019-Sep-18 23:20 035 22.2
2019-Sep-18 23:15 035 22.2
2019-Sep-18 23:10 035 22.2
2019-Sep-18 23:05 035 22.2
2019-Sep-18 23:00 035 22.2
2019-Sep-18 22:55 035 22.2
2019-Sep-18 22:50 035 22.2
2019-Sep-18 22:45 035 22.2
2019-Sep-18 22:40 035 22.8
2019-Sep-18 22:35 035 22.8
2019-Sep-18 22:30 035 22.8
2019-Sep-18 22:25 035 22.8
2019-Sep-18 22:20 035 22.8
2019-Sep-18 22:15 035 22.8
2019-Sep-18 22:10 035 22.8
2019-Sep-18 22:05 035 0 gusting 1 22.8
2019-Sep-18 22:00 035 22.8
2019-Sep-18 21:55 035 22.8
2019-Sep-18 21:50 035 22.8
2019-Sep-18 21:45 035 22.8
2019-Sep-18 21:40 035 22.8
2019-Sep-18 21:35 035 22.8
2019-Sep-18 21:30 035 22.8
2019-Sep-18 21:25 035 0 gusting 1 22.8
2019-Sep-18 21:20 035 22.8
2019-Sep-18 21:15 035 22.8
2019-Sep-18 21:10 035 22.8
2019-Sep-18 21:05 035 22.8
2019-Sep-18 21:00 035 22.8
2019-Sep-18 20:55 035 0 gusting 1 22.8
2019-Sep-18 20:50 035 22.8
2019-Sep-18 20:45 035 2 gusting 2 22.8
2019-Sep-18 20:40 035 23.3
2019-Sep-18 20:35 035 23.3
2019-Sep-18 20:30 035 23.3
2019-Sep-18 20:25 035 23.3
2019-Sep-18 20:20 035 23.3
2019-Sep-18 20:15 035 23.3
2019-Sep-18 20:10 035 23.3
2019-Sep-18 20:05 035 23.3
2019-Sep-18 20:00 035 23.3
2019-Sep-18 19:55 035 23.3
2019-Sep-18 19:50 035 23.3
2019-Sep-18 19:45 035 23.3
2019-Sep-18 19:40 035 0 gusting 1 23.3
2019-Sep-18 19:35 035 0 gusting 1 23.9
2019-Sep-18 19:30 035 0 gusting 2 23.9
2019-Sep-18 19:25 035 0 gusting 2 23.9
2019-Sep-18 19:20 035 23.9
2019-Sep-18 19:15 035 23.9
2019-Sep-18 19:10 035 0 gusting 1 23.9
2019-Sep-18 19:05 035 23.9
2019-Sep-18 19:00 035 23.9
2019-Sep-18 18:55 035 23.9
2019-Sep-18 18:50 035 23.9
2019-Sep-18 18:45 035 0 gusting 2 24.4
2019-Sep-18 18:40 035 0 gusting 2 24.4
2019-Sep-18 18:35 120 0 gusting 1 24.4
2019-Sep-18 18:30 120 0 gusting 1 24.4
2019-Sep-18 18:25 120 24.4
2019-Sep-18 18:20 120 0 gusting 2 24.4
2019-Sep-18 18:15 120 0 gusting 1 24.4
2019-Sep-18 18:10 120 0 gusting 1 24.4
2019-Sep-18 18:05 120 1 gusting 2 25.0
2019-Sep-18 18:00 120 0 gusting 2 25.0
2019-Sep-18 17:55 121 0 gusting 2 25.0
2019-Sep-18 17:50 121 1 gusting 2 25.0
2019-Sep-18 17:45 121 1 gusting 6 25.0
2019-Sep-18 17:40 121 0 gusting 6 25.0
2019-Sep-18 17:35 116 1 gusting 2 25.0
2019-Sep-18 17:30 116 1 gusting 5 25.0
2019-Sep-18 17:25 114 1 gusting 2 25.6
2019-Sep-18 17:20 107 1 gusting 5 25.6
2019-Sep-18 17:15 088 1 gusting 4 25.6
2019-Sep-18 17:10 134 0 gusting 4 25.6
2019-Sep-18 17:05 142 1 gusting 2 25.6
2019-Sep-18 17:00 142 2 gusting 6 25.6
2019-Sep-18 16:55 110 2 gusting 5 25.6
2019-Sep-18 16:50 129 2 gusting 6 25.6
2019-Sep-18 16:45 128 1 gusting 6 25.6
2019-Sep-18 16:40 114 3 gusting 6 25.6
2019-Sep-18 16:35 110 2 gusting 6 25.6
2019-Sep-18 16:30 105 2 gusting 6 25.6
2019-Sep-18 16:25 133 2 gusting 6 25.6
2019-Sep-18 16:20 140 4 gusting 6 25.6
2019-Sep-18 16:15 131 2 gusting 6 25.6
2019-Sep-18 16:10 108 2 gusting 5 25.6
2019-Sep-18 16:05 101 2 gusting 6 25.6
2019-Sep-18 16:00 110 2 gusting 6 26.1
2019-Sep-18 15:55 136 2 gusting 4 26.1
2019-Sep-18 15:50 121 2 gusting 6 26.1
2019-Sep-18 15:45 135 2 gusting 4 26.1
2019-Sep-18 15:40 134 2 gusting 6 26.1
2019-Sep-18 15:35 123 1 gusting 4 26.1
2019-Sep-18 15:30 131 2 gusting 6 26.1
2019-Sep-18 15:25 159 3 gusting 6 26.1
2019-Sep-18 15:20 140 2 gusting 6 26.1
2019-Sep-18 15:15 144 4 gusting 6 26.1
2019-Sep-18 15:10 140 2 gusting 6 26.1
2019-Sep-18 15:05 126 4 gusting 7 26.1
2019-Sep-18 15:00 137 4 gusting 6 26.1
2019-Sep-18 14:55 105 5 gusting 10 26.1
2019-Sep-18 14:50 113 3 gusting 6 26.7
2019-Sep-18 14:45 146 3 gusting 7 26.7
2019-Sep-18 14:40 125 4 gusting 10 26.7
2019-Sep-18 14:35 122 3 gusting 7 26.7
2019-Sep-18 14:30 137 2 gusting 6 26.7
2019-Sep-18 14:25 159 4 gusting 6 26.1
2019-Sep-18 14:20 148 4 gusting 6 26.1
2019-Sep-18 14:15 161 4 gusting 10 26.1
2019-Sep-18 14:10 161 5 gusting 7 26.1
2019-Sep-18 14:05 133 5 gusting 8 26.1
2019-Sep-18 14:00 156 5 gusting 8 26.1
2019-Sep-18 13:55 168 4 gusting 10 26.1
2019-Sep-18 13:50 147 5 gusting 10 26.1
2019-Sep-18 13:45 137 5 gusting 8 25.6
2019-Sep-18 13:40 130 4 gusting 10 26.1
2019-Sep-18 13:35 131 5 gusting 10 26.1
2019-Sep-18 13:30 137 5 gusting 8 26.1
2019-Sep-18 13:25 149 4 gusting 7 26.1
2019-Sep-18 13:20 145 4 gusting 7 26.1
2019-Sep-18 13:15 137 5 gusting 8 26.1
2019-Sep-18 13:10 117 4 gusting 8 26.1
2019-Sep-18 13:05 137 5 gusting 7 26.1
2019-Sep-18 13:00 132 5 gusting 10 26.1